Location: Sungai Jaoh
(2.9167°N, 113.9167°E)
Time: 06:48:07
(UTC+00:00)

CZ-3C R/B - Pass Details

Date: 30 November 2020
Orbit: 263 x 32848 km, 20.0° (Epoch: 25 January)

Event Time Altitude Azimuth Distance (km) Brightness Sun altitude
Exits shadow 20:03:35 49° 195° (SSW) 1,238 3.0 -31.1°
Maximum altitude 20:04:46 59° 149° (SSE) 1,338 3.3 -30.8°
Drops below altitude 10° 20:27:54 10° 72° (ENE) 10,336 8.3 -25.5°
Sets 21:03:18 0° 70° (ENE) 19,904 10.0 -17.3°
